DMSP 5D-2 F13 DEB, 42323

Orbit data source: Space-Track

DMSP 5D-2 F13 DEB, 42323 is space debris in SSO originally from a launch on Fri, 24 Mar 1995 UTC launched from the Air Force Western Test Range (AFWTR). Debris objects in space refer to the collection of defunct objects orbiting the Earth. Examples of debris include non-operational satellites, rocket bodies, and fragments generated from explosions, collisions, or faulty payload assembly.

Loading next visibility...
Identifier
42323, 1995-015JR
Orbit
SSO
Country
Flag of USUS
Related business
Manufacturer
Unknown
Mission
Spacecraft
Bus & Motor
Unknown
Mass
Unknown
Launch date (UTC)
1995-03-24 (31 years ago)
Launch vehicle
Unknown
Launch site
Air Force Western Test Range (AFWTR)
Object type
Payload
Rocket body
Debris
Shape & HBR
Unknown shape, 0.1 m
Radar Cross Section
Small (<0.1 m²)

Expand to show TLE details & history
Last TLE update: 18 hours ago

TLE from 18 hours ago
0 DMSP 5D-2 F13 DEB
1 42323U 95015JR  26235.26421534  .00000233  00000-0  13639-3 0  9992
2 42323  98.8223 250.3878 0003032 164.8675 195.2591 14.17668280562194
Epoch: 2026-08-23T06:20Z
TLE epoch observation values (Epoch: 2026-08-23T06:20:28.205Z)
Latitude
-0.00002°
Longitude
-176.29248°
Altitude
838.267 km
Speed
7.433 km/s
True Right ascension
16h 41m 33s
True Declination
0° 00' 00"
Sunlit
Object was in daylight at epoch
Visualization orbit readout
Latitude
Unknown
Longitude
Unknown
Altitude
Unknown
Speed
Unknown
Apparent Right ascension
Unknown
Apparent Declination
Unknown
Sunlit
N/A
Visualization observer readout
Local Sidereal Time
15:53:53
Azimuth
Unknown
Elevation
Unknown
Doppler factor
Unknown
Orbital elements
Apogee altitude
832.602 km
Perigee altitude
828.231 km
Semi-major axis
7,208.553 km
Eccentricity
0.0003
Inclination
98.8223°
RAAN
250.3878°
Arg. of periapsis
164.8675°
True anomaly
195.24996°
Mean anomaly
195.2591°
Eccentric anomaly
195.25453°
Mean motion
3.54626 °/min
Orbital period
101.52 mins
BSTAR
0.00013639

Documentation

Showing up to 5 results
|